Location: Unspecified
(0.0000°N, 0.0000°E)
Time: 20:09:06
(UTC+00:00)

Courier 1B Rocket - Visible Passes

Search period start: 25 August 2016 00:00
Search period end: 04 September 2016 00:00
Orbit: 920 x 1202 km, 28.2° (Epoch: 24 August)

Date Brightness Start Highest point End Pass type
(mag) Time Alt. Az. Time Alt. Az. Time Alt. Az.
25 Aug 7.2 04:43:22 10° SSW 04:44:11 10° SSW 04:45:00 10° S visible
30 Aug 7.2 20:38:17 10° NNW 20:39:20 14° NNW 20:39:20 14° NNW visible
31 Aug 6.8 19:38:17 10° N 19:41:48 15° NNE 19:42:08 15° NNE visible
01 Sep 7.1 18:39:32 10° NNE 18:40:23 10° NNE 18:41:14 10° NNE visible
01 Sep 6.7 20:28:53 10° NW 20:31:22 22° NNW 20:31:22 22° NNW visible
02 Sep 6.2 19:28:25 10° NNW 19:33:30 23° NNE 19:34:17 23° NE visible
03 Sep 6.8 18:28:12 10° NNW 18:32:13 16° NNE 18:36:05 10° ENE visible
03 Sep 6.1 20:19:47 10° NW 20:23:37 35° NNW 20:23:37 35° NNW visible
